Location: C�mpuri de-Sus
(45.9500°N, 22.5500°E)
Time: 06:02:39
(UTC+00:00)

NOSS 8 (H) - Pass Details

Date: 24 October 2021
Orbit: 371 x 1792 km, 63.3° (Epoch: 04 December)

Event Time Altitude Azimuth Distance (km) Brightness Sun altitude
Rises 16:43:20 0° 215° (SW) 2,596 8.8 -13.7°
Reaches altitude 10° 16:45:40 10° 215° (SW) 1,578 7.7 -14.1°
Maximum altitude 16:49:00 81° 130° (SE) 406 4.0 -14.7°
Enters shadow 16:50:33 26° 43° (NE) 803 5.3 -14.9°
